Voltar ao catálogo

FENGYUN 1C DEB

AtivoPO
NORAD 37069·DEBRIS·🇨🇳 China

Lançado May 10, 1999 de Taiyuan Satellite Launch Center

Loading…

Próximas Passagens (próximas 24 horas)

TLE

AtualizadoSource: Space-Track

Época: Sep 11, 2026, 09:49 UTC

1 37069U 99025EFD 26254.40911403  .00000978  00000-0  11153-2 0  9998
2 37069  95.8439 115.0411 0419142 241.4157 114.4207 13.39066543913566

Acompanhe FENGYUN 1C DEB em tempo real com AllMySat

Download on the App Store